Flag for U.S.A. Weather past 2 weeks in Yonkers, New York, U.S.A.

Now
77 °F

Clear.


Feels Like: 79 °F
Forecast: 75 / 83 °F
Wind: 5 mph from South

Location: Teterboro Airport

Current Time: Jul 8, 2015 at 2:55:11 AM

Latest Report: Jul 8, 2015 at 1:51 AM


Visibility: 10 mi

Pressure: 29.92 "Hg

Humidity: 77%

Dew point: 69 °F

Location of YonkersLocation

Historic Weather in Yonkers — Graph

°F

Yonkers temperature yesterday

Maximum temperature yesterday: 88 °F (at 3:51 PM)
Minimum temperature yesterday: 75 °F (at 12:51 AM)
Average temperature yesterday: 81 °F

Past Weeks' High & Low Weather Summary

 TemperatureHumidityPressure
High91 °F (Jun 23, 2:51 PM)93% (Jun 27, 11:51 PM)30.16 "Hg (Jun 27, 11:51 PM)
Low60 °F (Jun 27, 8:51 PM)31% (Jun 25, 12:51 PM)29.65 "Hg (Jun 28, 10:51 AM)
Average74 °F62%29.93 "Hg
* Reported Jun 23 12:51 AM — Jul 8 12:51 AM, Yonkers, Weather by CustomWeather, © 2015

Note: Actual official high and low records may vary slightly from our data, if they occured in-between our weather recording intervals... More about our weather records

Advertising

Yonkers weather history for previous 24 hours

 ConditionsComfort  
Time TempWeatherWind HumidityBarometerVisibility
12:51 AM
Wed, Jul 8
78 °FClear.5 mph74%29.94 "Hg10 mi
11:51 PM
Tue, Jul 7
80 °FClear.7 mph67%29.95 "Hg10 mi
10:51 PM80 °FClear.7 mph69%29.95 "Hg10 mi
9:51 PM81 °FClear.5 mph67%29.96 "Hg10 mi
8:51 PM81 °FSunny.5 mph65%29.94 "Hg10 mi
7:51 PM86 °FPassing clouds.8 mph55%29.93 "Hg10 mi
6:51 PM87 °FPassing clouds.14 mph51%29.91 "Hg10 mi
5:51 PM85 °FScattered clouds.8 mph63%29.91 "Hg10 mi
4:51 PM86 °FScattered clouds.12 mph59%29.91 "Hg10 mi
3:51 PM88 °FSunny.14 mph54%29.93 "Hg10 mi
2:51 PM86 °FPartly sunny.13 mph57%29.95 "Hg10 mi
1:51 PM87 °FPartly sunny.9 mph53%29.96 "Hg10 mi
12:51 PM87 °FPartly sunny.10 mph55%29.97 "Hg10 mi
11:51 AM86 °FScattered clouds.10 mph57%29.99 "Hg10 mi
10:51 AM82 °FBroken clouds.8 mph70%30.01 "Hg10 mi
9:51 AM81 °FCloudy.9 mph74%30.02 "Hg10 mi
8:51 AM80 °FBroken clouds.12 mph74%30.02 "Hg10 mi
7:51 AM78 °FMostly cloudy.8 mph79%30.03 "Hg10 mi
6:51 AM77 °FBroken clouds.6 mph82%30.03 "Hg10 mi
5:51 AM77 °FPassing clouds.7 mph79%30.03 "Hg10 mi
4:51 AM75 °FPassing clouds.No wind85%30.03 "Hg10 mi
3:51 AM76 °FMostly cloudy.6 mph82%30.03 "Hg10 mi
2:51 AM77 °FOvercast.3 mph79%30.03 "Hg10 mi
Weather by CustomWeather, © 2015

See weather overviewHow to use our weather pages